This is the latest recevied weather packets stored in our database for station/object 4S6DRJ-13. If no packets are shown the sender has not sent any weather packets the latest 10 day(s).
| Time | Temp. | Humidity | Pressure | Rain* | Wind** | Luminosity | Snow |
|---|---|---|---|---|---|---|---|
| 1788074412 | 30.56° C | 67% | 1009.1 hPa | 0 mm | 1.79 m/s, 313° | 562 W/m² | - |
| 1788074351 | 30.56° C | 67% | 1009.2 hPa | 0 mm | 0.89 m/s, 41° | 562 W/m² | - |
| 1788074290 | 31.11° C | 67% | 1009.3 hPa | 0 mm | 1.79 m/s, 246° | 610 W/m² | - |
| 1788074229 | 31.11° C | 66% | 1009.1 hPa | 0 mm | 2.68 m/s, 208° | 637 W/m² | - |
| 1788074168 | 31.11° C | 66% | 1009.1 hPa | 0 mm | 3.13 m/s, 215° | 647 W/m² | - |
| 1788074107 | 31.11° C | 67% | 1009.3 hPa | 0 mm | 2.68 m/s, 230° | 662 W/m² | - |
| 1788074047 | 31.11° C | 66% | 1009.1 hPa | 0 mm | 1.34 m/s, 134° | 714 W/m² | - |
| 1788073985 | 31.11° C | 66% | 1009.3 hPa | 0 mm | 1.34 m/s, 296° | 751 W/m² | - |
| 1788073924 | 31.11° C | 66% | 1009.2 hPa | 0 mm | 2.24 m/s, 282° | 735 W/m² | - |
| 1788073863 | 31.11° C | 66% | 1009.4 hPa | 0 mm | 1.79 m/s, 88° | 731 W/m² | - |
| 1788073818 | 31.11° C | 66% | 1009.4 hPa | 0 mm | 1.79 m/s, 292° | 781 W/m² | - |
| 1788073741 | 31.11° C | 66% | 1009.5 hPa | 0 mm | 1.34 m/s, 5° | 810 W/m² | - |
| 1788073680 | 31.11° C | 66% | 1009.2 hPa | 0 mm | 0.89 m/s, 198° | 797 W/m² | - |
| 1788073619 | 31.11° C | 65% | 1009.2 hPa | 0 mm | 2.68 m/s, 187° | 770 W/m² | - |
| 1788073558 | 31.11° C | 66% | 1009.3 hPa | 0 mm | 2.24 m/s, 72° | 722 W/m² | - |
| 1788073497 | 31.11° C | 67% | 1009.4 hPa | 0 mm | 1.34 m/s, 226° | 718 W/m² | - |
| 1788073436 | 31.11° C | 67% | 1009.5 hPa | 0 mm | 1.79 m/s, 234° | 491 W/m² | - |
| 1788073375 | 31.11° C | 68% | 1009.3 hPa | 0 mm | 1.79 m/s, 255° | 583 W/m² | - |
| 1788073314 | 31.11° C | 69% | 1009.4 hPa | 0 mm | 0.89 m/s, 297° | 753 W/m² | - |
| 1788073253 | 31.11° C | 68% | 1009.6 hPa | 0 mm | 1.79 m/s, 123° | 724 W/m² | - |
| 1788073192 | 31.11° C | 67% | 1009.6 hPa | 0 mm | 1.34 m/s, 206° | 758 W/m² | - |
| 1788073131 | 31.11° C | 67% | 1009.7 hPa | 0 mm | 3.58 m/s, 233° | 814 W/m² | - |
| 1788073070 | 31.11° C | 67% | 1009.8 hPa | 0 mm | 2.24 m/s, 272° | 914 W/m² | - |
| 1788073010 | 31.11° C | 67% | 1009.8 hPa | 0 mm | 1.34 m/s, 219° | 815 W/m² | - |
| 1788072948 | 31.67° C | 67% | 1009.7 hPa | 0 mm | 1.34 m/s, 259° | 783 W/m² | - |
* Rain latest hour (hover to see other rain measurements)
** Current wind speed in m/s (hover to see current wind gust speed)